• Join FlightAware (Why Join?)
  • Login
  • US Flag 
08:13AM EST


 

Airport Tracker/Info


-or-


 

Live Flight TrackerFlight Track Log ✈ C-FNVU ✈ 09-May-2012 ✈ KMCO - CYYZ

Flight Track Log - Related Links

Times and Time Zones

All times are in EDT time to prevent confusion due to time zone crossing. See the C-FNVU flight status page for this flight to view local times or setup timezone preferences in your user account.

Time Position Orientation Groundspeed Altitude Reporting Facility
EDT Latitude Longitude Course Direction KTS MPH feet Rate Location/Type
08:08AM 28.4167 -81.3167 67° East 179 206 500  Level Orlando TRACON
08:13AM 28.4667 -81.1833 345° North 287 330 10,100 1,902 Climbing Orlando TRACON
08:14AM 28.6297 -81.2344 344° North 333 383 12,800 1,674 Climbing Jacksonville Center
08:15AM 28.7303 -81.2683 344° North 353 406 14,900 2,000 Climbing Jacksonville Center
08:16AM 28.8308 -81.3022 345° North 367 422 16,800 1,850 Climbing Jacksonville Center
08:17AM 28.9378 -81.3361 344° North 384 442 18,600 1,750 Climbing Jacksonville Center
08:18AM 29.0467 -81.3725 350° North 395 455 20,300 1,750 Climbing Jacksonville Center
08:19AM 29.1597 -81.3944 355° North 400 460 22,100 1,500 Climbing Jacksonville Center
08:20AM 29.2747 -81.4069 357° North 410 472 23,300 1,150 Climbing Jacksonville Center
08:21AM 29.3978 -81.4147 352° North 420 483 24,400 1,150 Climbing Jacksonville Center
08:22AM 29.5169 -81.4344 356° North 430 495 25,600 1,150 Climbing Jacksonville Center
08:23AM 29.6425 -81.4444 355° North 435 501 26,700 1,000 Climbing Jacksonville Center
08:24AM 29.7678 -81.4569 355° North 446 513 27,600 850 Climbing Jacksonville Center
08:25AM 29.8975 -81.4694 355° North 451 519 28,400 1,000 Climbing Jacksonville Center
08:26AM 30.0311 -81.4842 355° North 466 536 29,600 1,300 Climbing Jacksonville Center
08:27AM 30.1567 -81.4969 356° North 466 536 31,000 1,200 Climbing Jacksonville Center
08:28AM 30.2967 -81.5092 North 459 528 32,000 1,050 Climbing Jacksonville Center
08:29AM 30.4281 -81.5025 North 464 534 33,100 950 Climbing Jacksonville Center
08:30AM 30.5533 -81.4933 North 458 527 33,900 750 Climbing Jacksonville Center
08:31AM 30.6806 -81.4844 North 458 527 34,600 550 Climbing Jacksonville Center
08:32AM 30.8078 -81.4728 North 458 527 35,000 200 Climbing Jacksonville Center
08:33AM 30.9369 -81.4589 North 458 527 35,000  Level Jacksonville Center
08:34AM 31.0600 -81.4447 North 458 527 35,000  Level Jacksonville Center
08:35AM 31.1853 -81.4306 North 452 520 35,000  Level Jacksonville Center
08:36AM 31.3122 -81.4142 North 452 520 35,000  Level Jacksonville Center
08:37AM 31.4397 -81.4047 North 452 520 35,000  Level Jacksonville Center
08:38AM 31.5647 -81.3906 North 458 527 35,000  Level Jacksonville Center
08:39AM 31.6772 -81.3789 North 453 521 35,000  Level Jacksonville Center
08:40AM 31.8169 -81.3619 North 453 521 35,000 -50 Level Jacksonville Center
08:41AM 31.9294 -81.3481 North 453 521 34,900 -50 Descending Jacksonville Center
08:42AM 32.0567 -81.3383 North 453 521 34,900 50 Level Jacksonville Center
08:43AM 32.1819 -81.3242 North 453 521 35,000 50 Climbing Jacksonville Center
08:44AM 32.3111 -81.3069 North 453 521 35,000  Level Jacksonville Center
08:45AM 32.4403 -81.2950 North 466 536 35,000  Level Jacksonville Center
08:46AM 32.5758 -81.2753 North 461 531 35,000 -50 Level Jacksonville Center
08:47AM 32.6925 -81.2633 North 461 531 34,900 -50 Descending Jacksonville Center
08:48AM 32.8197 -81.2489 North 461 531 34,900  Level Jacksonville Center
08:49AM 32.9428 -81.2317 North 456 525 34,900 50 Level Jacksonville Center
08:50AM 33.0719 -81.2169 North 461 531 35,000 50 Climbing Jacksonville Center
08:51AM 33.1989 -81.1997 North 461 531 35,000  Level Jacksonville Center
08:52AM 33.3219 -81.1847 North 455 524 35,000  Level Jacksonville Center
08:53AM 33.4511 -81.1700 North 455 524 35,000 -50 Level Jacksonville Center
08:54AM 33.5742 -81.1550 North 455 524 34,900 -50 Descending Jacksonville Center
08:55AM 33.7011 -81.1400 North 455 524 34,900  Level Jacksonville Center
08:56AM 33.8281 -81.1225 North 455 524 34,900 50 Level Jacksonville Center
08:57AM 33.9531 -81.1100 North 455 524 35,000 34 Climbing Jacksonville Center
08:59AM 34.2094 -81.0772 North 461 531 35,000  Level Atlanta Center
09:00AM 34.3364 -81.0628 North 458 527 35,000 50 Level Atlanta Center
09:01AM 34.4528 -81.0486 North 464 534 35,100 350 Climbing Atlanta Center
09:02AM 34.5839 -81.0289 10° North 466 536 35,700 600 Climbing Atlanta Center
09:03AM 34.7125 -81.0014 10° North 466 536 36,300 650 Climbing Atlanta Center
09:04AM 34.8411 -80.9739 11° North 466 536 37,000 350 Climbing Atlanta Center
09:05AM 34.9697 -80.9439 North 459 528 37,000  Level Atlanta Center
09:06AM 35.0986 -80.9189 North 465 535 37,000  Level Atlanta Center
09:07AM 35.2272 -80.8936 10° North 460 529 37,000  Level Atlanta Center
09:08AM 35.3558 -80.8658 10° North 466 536 37,000  Level Atlanta Center
09:09AM 35.4847 -80.8378 10° North 466 536 37,000  Level Atlanta Center
09:10AM 35.6175 -80.8097 North 466 536 37,000 50 Level Atlanta Center
09:11AM 35.7503 -80.7839 North 466 536 37,100  Climbing Atlanta Center
09:12AM 35.8914 -80.7553 North 466 536 37,000 -50 Descending Atlanta Center
09:13AM 36.0242 -80.7294 North 466 536 37,000  Level Atlanta Center
09:14AM 36.1569 -80.7033 10° North 479 551 37,000  Level Atlanta Center
09:15AM 36.2625 -80.6808 North 485 558 37,000  Level Atlanta Center
09:16AM 36.4222 -80.6483 10° North 485 558 37,000  Level Atlanta Center
09:17AM 36.5592 -80.6194 10° North 485 558 37,000  Level Atlanta Center
09:18AM 36.6897 -80.5906 North 485 558 37,000  Level Atlanta Center
09:21AM 36.9806 -80.5319 North 483 556 37,000  Level Washington Center
09:22AM 37.1131 -80.5067 North 483 556 37,000  Level Washington Center
09:23AM 37.2475 -80.4789 North 488 562 37,000  Level Washington Center
09:24AM 37.3822 -80.4533 10° North 488 562 37,000  Level Washington Center
09:25AM 37.5064 -80.4247 North 488 562 37,000  Level Washington Center
09:26AM 37.6431 -80.3994 North 488 562 37,000  Level Washington Center
09:27AM 37.7778 -80.3711 11° North 488 562 37,000  Level Washington Center
09:28AM 37.9147 -80.3378 North 488 562 37,000  Level Washington Center
09:29AM 38.0492 -80.3119 10° North 488 562 37,000  Level Washington Center
09:30AM 38.2006 -80.2767 North 488 562 37,000  Level Washington Center
09:31AM 38.3372 -80.2481 North 488 562 37,000  Level Washington Center
09:32AM 38.4761 -80.2197 10° North 488 562 37,000  Level Washington Center
09:33AM 38.6106 -80.1908 10° North 488 562 37,000  Level Washington Center
09:34AM 38.7475 -80.1594 11° North 488 562 37,000  Level Washington Center
09:36AM 39.0072 -80.0942 10° North 492 566 37,000  Level Cleveland Center
09:37AM 39.1447 -80.0639 10° North 492 566 37,000  Level Cleveland Center
09:38AM 39.2800 -80.0333 10° North 497 572 37,000  Level Cleveland Center
09:39AM 39.4175 -80.0028 10° North 497 572 37,000  Level Cleveland Center
09:40AM 39.5547 -79.9719 10° North 497 572 37,000  Level Cleveland Center
09:41AM 39.6922 -79.9411 10° North 497 572 37,000  Level Cleveland Center
09:42AM 39.8317 -79.9100 10° North 504 580 37,000  Level Cleveland Center
09:43AM 39.9650 -79.8789 10° North 504 580 37,000  Level Cleveland Center
09:44AM 40.1003 -79.8475 10° North 499 574 37,000  Level Cleveland Center
09:45AM 40.2356 -79.8161 11° North 499 574 37,000  Level Cleveland Center
09:46AM 40.3708 -79.7819 North 494 568 37,000  Level Cleveland Center
09:47AM 40.5061 -79.7531 11° North 494 568 37,000  Level Cleveland Center
09:48AM 40.6433 -79.7183 10° North 494 568 37,000 -350 Level Cleveland Center
09:49AM 40.7828 -79.6864 North 500 575 36,300 -900 Descending Cleveland Center
09:50AM 40.9181 -79.6572 11° North 500 575 35,200 -650 Descending Cleveland Center
09:51AM 41.0264 -79.6281 29° Northeast 500 575 35,000 -100 Descending Cleveland Center
09:52AM 41.1775 -79.5183 34° Northeast 500 575 35,000 -400 Level Cleveland Center
09:53AM 41.2975 -79.4114 15° North 507 583 34,200 -500 Descending Cleveland Center
09:54AM 41.4469 -79.3586 North 508 585 34,000 -100 Descending Cleveland Center
09:55AM 41.5864 -79.3478 North 492 566 34,000  Level Cleveland Center
09:56AM 41.7261 -79.3339 North 492 566 34,000 -550 Level Cleveland Center
09:57AM 41.8656 -79.3228 North 498 573 32,900 -1,250 Descending Cleveland Center
09:58AM 42.0072 -79.3117 North 498 573 31,500 -1,400 Descending Cleveland Center
09:59AM 42.1467 -79.3033 North 498 573 30,100 -1,200 Descending Cleveland Center
10:00AM 42.2864 -79.2922 North 498 573 29,100 -1,500 Descending Cleveland Center
10:01AM 42.4153 -79.2811 North 487 560 27,100 -2,000 Descending Cleveland Center
10:02AM 42.5467 -79.2783 356° North 470 541 25,100 -2,100 Descending Cleveland Center
10:03AM 42.6678 -79.2900 356° North 445 512 22,900 -2,050 Descending Cleveland Center
10:04AM 42.7844 -79.3017 355° North 429 494 21,000 -1,900 Descending Cleveland Center
10:05AM 42.8908 -79.3136 21° North 407 468 19,100 -1,980 Descending Cleveland Center
10:05AM 42.9500 -79.2833 21° North 400 460 17,700 -2,100 Descending Toronto Center